Regional Weather Roundup
Issued by NWS State College, PA

Home | Current Version | Previous Version | Text Only | Print | Product List | Glossary On
Versions: 1 2 3 4 5 6 7 8 9 10 11 12 13 14 15 16 17 18 19 20 21 22 23 24 25 26 27 28 29 30 31 32 33 34 35 36 37 38 39 40 41 42 43 44 45 46 47 48 49 50
598
ASUS41 KCTP 232310
RWRCTP

REGIONAL WEATHER ROUNDUP
NATIONAL WEATHER SERVICE STATE COLLEGE PA
700 PM EDT TUE MAY 23 2017

Note: "fair" indicates few or no clouds below 12,000 feet with no
significant weather and/or obstructions to visibility.

* = STATION THAT DOES NOT REPORT PRECIPITATION /E.G. RAIN...SNOW...ETC/
    THUNDER OR FOG.

PAZ002>004-007>009-013>016-020>023-029>032-240000-
WESTERN PENNSYLVANIA

CITY           SKY/WX    TMP DP  RH WIND       PRES   REMARKS
ERIE           CLOUDY    66  45  46 NE13      29.75F
MEADVILLE      MOSUNNY   71  42  35 CALM      29.75F
FRANKLIN*      MOSUNNY   66  43  42 SE7       29.78S
NEW CASTLE     FAIR      71  48  43 SE6       29.75F
BEAVER COUNTY  NOT AVBL
BUTLER*        PTSUNNY   68  50  52 SE7       29.75F
PITTSBURGH INT CLOUDY    70  49  47 SE8       29.74F
PITTSBURGH     PTSUNNY   67  48  50 S13       29.75F
INDIANA*       NOT AVBL
LATROBE        PTSUNNY   64  50  59 VRB6      29.78F
WASHINGTON CO* CLOUDY    64  52  63 SE8       29.77F
$$

PAZ004>006-010>012-017>019-024>028-033>037-041-042-045-046-049>053-240000-
CENTRAL PENNSYLVANIA

CITY           SKY/WX    TMP DP  RH WIND       PRES   REMARKS
BRADFORD       CLOUDY    67  40  37 S6        29.80S
DUBOIS         CLOUDY    64  42  44 SE9       29.79F
CLEARFIELD     CLOUDY    65  43  44 SE6       29.81F
JOHNSTOWN      CLOUDY    58  48  69 SE9       29.81F
ALTOONA        PTSUNNY   63  48  58 SE8       29.82F
STATE COLLEGE  SUNNY     64  46  52 CALM      29.82F
WILLIAMSPORT   CLOUDY    67  48  50 SE6       29.80F
SELINSGROVE    CLOUDY    65  47  52 S6        29.83F
FT INDIANTOWN  CLOUDY    63  51  64 SE3       29.83F
CAPITAL CITY   CLOUDY    65  49  56 S3        29.82F
HARRISBURG     CLOUDY    64  55  72 CALM      29.82F
YORK           CLOUDY    63  54  72 SE3       29.83F
$$

PAZ038>040-043-044-047-048-054-055-060>062-067>071-240000-
EASTERN PENNSYLVANIA

CITY           SKY/WX    TMP DP  RH WIND       PRES   REMARKS
SCRANTON       CLOUDY    67  45  45 CALM      29.83S
MOUNT POCONO   MOSUNNY   58  48  69 SE5       29.86S
ALLENTOWN      CLOUDY    66  50  56 SE5       29.84S
QUAKERTOWN*    CLOUDY    64  52  63 CALM      29.85S
READING        CLOUDY    64  54  69 CALM      29.83S
LANCASTER      CLOUDY    64  57  78 E3        29.83F
COATESVILLE    CLOUDY    63  54  72 CALM      29.85S
POTTSTOWN      CLOUDY    63  51  65 CALM      29.85F
BLUE BELL      CLOUDY    61  52  72 CALM      29.85S
DOYLESTOWN     CLOUDY    62  54  74 CALM      29.84S
WILLOW GROVE   NOT AVBL
NORTH PHILA    CLOUDY    65  51  60 E5        29.84F
PHILADELPHIA   CLOUDY    65  51  60 E5        29.84R
$$




USA.gov is the U.S. government's official web portal to all federal, state and local government web resources and services.